Berlin, NH

2:51 AM EDT on June 24, 2017 (GMT -0400)
Berlin Municipal

Weather History for KBML - December, 2006

Change the Weather History Date:

Saturday, December 23, 2006

  Actual Average Record
Temperature  
Mean Temperature 37 °F -  
Max Temperature 42 °F 26 °F 52 °F (2015)
Min Temperature 32 °F 6 °F -4 °F (2001)
Degree Days  
Heating Degree Days 28    
Moisture  
Dew Point 36 °F    
Average Humidity 91    
Maximum Humidity 100    
Minimum Humidity 77    
Precipitation  
Precipitation 0.70 in - - ()
Sea Level Pressure  
Sea Level Pressure 29.78 in    
Wind  
Wind Speed 3 mph (WNW)    
Max Wind Speed 14 mph    
Max Gust Speed 18 mph    
Visibility 7 miles    
Events Rain    
Averages and records for this station are not official NWS values.
T = Trace of Precipitation, MM = Missing Value Source: NWS Daily Summary

Daily Weather History Graph

Daily Weather History Graph

Search for Another Location

Airport or City:

Trip Planner

Search our weather history database for the weather conditions in past years. The results will help you decide how hot, cold, wet, or windy it might be!

Date:

Astronomy

Dec. 23, 2006 Rise Set
Actual Time 7:19 AM EST 4:08 PM EST
Civil Twilight 6:45 AM EST 4:42 PM EST
Nautical Twilight 6:08 AM EST 5:18 PM EST
Astronomical Twilight 5:33 AM EST 5:54 PM EST
Moon 9:58 AM EST (12/23) 7:29 PM EST (12/23)
Length of Visible Light 9h 56m
Length of Day
8h 49m
Waxing Crescent, 11% of the Moon is Illuminated
Dec 23
Waxing Crescent
Dec 27
First Quarter
Jan 3
Full
Jan 11
Last Quarter
Jan 18
New

Hourly Weather History & Observations

Time (EST) Temp. Windchill Dew Point Humidity Pressure Visibility Wind Dir Wind Speed Gust Speed Precip Events Conditions
12:42 AM 32.0 °F - 30.2 °F 93% 30.14 in 5.0 mi Calm Calm - 0.04 in   Overcast
12:52 AM 32.0 °F - 30.9 °F 96% 30.18 in 4.0 mi Calm Calm - 0.05 in   Overcast
1:43 AM 33.8 °F - 32.0 °F 93% 30.13 in 5.0 mi Calm Calm - 0.04 in Rain Light Rain
1:52 AM 33.1 °F - 32.0 °F 96% 30.17 in 6.0 mi Calm Calm - 0.05 in Rain Light Rain
2:11 AM 33.8 °F - 32.0 °F 93% 30.12 in 5.0 mi Calm Calm - 0.02 in Rain Light Rain
2:48 AM 33.8 °F - 32.0 °F 93% 30.11 in 6.0 mi Calm Calm - 0.07 in Rain Light Rain
2:52 AM 33.1 °F - 30.9 °F 92% 30.16 in 6.0 mi Calm Calm - 0.07 in Rain Light Rain
3:52 AM 33.1 °F - 32.0 °F 96% 30.12 in 6.0 mi Calm Calm - 0.09 in Rain Light Rain
4:52 AM 34.0 °F 31.0 °F 32.0 °F 92% 30.07 in 4.0 mi South 3.5 mph - 0.08 in Rain Light Rain
5:52 AM 35.1 °F 31.0 °F 33.1 °F 92% 30.04 in 7.0 mi Variable 4.6 mph - 0.08 in Rain Light Rain
6:52 AM 37.9 °F 29.6 °F 34.0 °F 86% 30.02 in 7.0 mi SSE 13.8 mph - 0.06 in Rain Light Rain
7:52 AM 39.0 °F 35.7 °F 36.0 °F 89% 29.98 in 8.0 mi SSE 4.6 mph - 0.03 in Rain Light Rain
8:52 AM 39.9 °F 33.4 °F 36.0 °F 86% 29.95 in 5.0 mi SSE 10.4 mph - 0.06 in Rain Light Rain
9:52 AM 39.0 °F - 37.0 °F 93% 29.92 in 5.0 mi Calm Calm - 0.05 in Rain Light Rain
10:52 AM 41.0 °F 35.2 °F 37.9 °F 89% 29.84 in 8.0 mi SSE 9.2 mph - 0.05 in Rain Light Rain
11:05 AM 41.0 °F 39.0 °F 37.4 °F 87% 29.79 in 9.0 mi SSE 3.5 mph - 0.01 in Rain Light Rain
11:52 AM 42.1 °F 40.2 °F 39.0 °F 89% 29.77 in 10.0 mi SSE 3.5 mph - 0.01 in   Overcast
12:52 PM 39.9 °F 35.8 °F 37.0 °F 89% 29.71 in 10.0 mi North 5.8 mph - N/A   Overcast
1:16 PM 39.2 °F 35.0 °F 37.4 °F 93% 29.66 in 10.0 mi NNW 5.8 mph - N/A   Overcast
1:34 PM 39.2 °F 37.0 °F 37.4 °F 93% 29.65 in 10.0 mi NNW 3.5 mph - N/A   Overcast
1:52 PM 39.0 °F 34.0 °F 37.0 °F 93% 29.67 in 10.0 mi NNW 6.9 mph - N/A   Overcast
2:29 PM 39.2 °F 35.9 °F 37.4 °F 93% 29.61 in 9.0 mi NW 4.6 mph - 0.00 in   Overcast
2:52 PM 39.0 °F 35.7 °F 37.0 °F 93% 29.64 in 10.0 mi NW 4.6 mph - 0.00 in   Overcast
3:28 PM 39.2 °F - 37.4 °F 93% 29.60 in 9.0 mi Calm Calm - N/A   Overcast
3:36 PM 39.2 °F - 37.4 °F 93% 29.60 in 6.0 mi Calm Calm - N/A   Overcast
3:52 PM 39.0 °F - 37.0 °F 93% 29.64 in 4.0 mi Calm Calm - N/A   Overcast
4:19 PM 37.4 °F - 37.4 °F 100% 29.60 in 3.0 mi Calm Calm - 0.01 in Rain Light Rain
4:35 PM 37.4 °F - 37.4 °F 100% 29.61 in 4.0 mi Calm Calm - 0.01 in Rain Light Rain
4:45 PM 37.4 °F - 37.4 °F 100% 29.61 in 1.8 mi Calm Calm - 0.01 in Rain Light Rain
4:52 PM 37.9 °F - 37.0 °F 97% 29.64 in 2.5 mi Calm Calm - 0.01 in Rain Light Rain
4:59 PM 37.4 °F 34.9 °F 37.4 °F 100% 29.61 in 5.0 mi NNW 3.5 mph - 0.00 in Rain Light Rain
5:49 PM 41.0 °F - 39.2 °F 93% 29.62 in 9.0 mi Calm Calm - 0.00 in   Overcast
5:52 PM 41.0 °F - 39.0 °F 93% 29.65 in 9.0 mi Calm Calm - 0.00 in   Overcast
6:00 PM 41.0 °F - 39.2 °F 93% 29.61 in 10.0 mi Calm Calm - N/A   Overcast
6:18 PM 41.0 °F 38.0 °F 39.2 °F 93% 29.61 in 6.0 mi WNW 4.6 mph - 0.01 in   Overcast
6:52 PM 41.0 °F 35.8 °F 37.9 °F 89% 29.64 in 7.0 mi West 8.1 mph - 0.01 in   Overcast
7:24 PM 39.2 °F 33.6 °F 37.4 °F 93% 29.62 in 6.0 mi WNW 8.1 mph - 0.00 in Rain Light Rain
7:42 PM 39.2 °F 33.6 °F 37.4 °F 93% 29.62 in 10.0 mi West 8.1 mph - 0.00 in   Overcast
7:52 PM 39.9 °F 34.5 °F 36.0 °F 86% 29.65 in 10.0 mi WNW 8.1 mph 18.4 mph 0.00 in   Mostly Cloudy
8:01 PM 39.2 °F 34.2 °F 35.6 °F 87% 29.63 in 10.0 mi Variable 6.9 mph 17.3 mph N/A   Mostly Cloudy
8:52 PM 39.0 °F 36.8 °F 34.0 °F 82% 29.65 in 10.0 mi WNW 3.5 mph - N/A   Overcast
9:52 PM 37.9 °F 35.5 °F 34.0 °F 86% 29.65 in 10.0 mi NW 3.5 mph - N/A   Overcast
10:10 PM 39.2 °F 37.0 °F 33.8 °F 81% 29.62 in 10.0 mi NW 3.5 mph - N/A   Overcast
10:52 PM 39.9 °F 35.1 °F 33.1 °F 77% 29.64 in 10.0 mi WSW 6.9 mph - N/A   Overcast
11:12 PM 39.2 °F 34.2 °F 33.8 °F 81% 29.61 in 10.0 mi West 6.9 mph - 0.00 in Rain Light Rain
11:52 PM 39.9 °F - 34.0 °F 79% 29.63 in 10.0 mi Calm Calm - 0.00 in   Overcast